Home > Weather > Beja > Past weeks

Flag for Portugal Past Weather in Beja, Portugal — Yesterday and Last 2 Weeks

Now
63 °F

Clear.


Feels Like: 63 °F
Forecast: 57 / 88 °F
Wind: 8 mph from West

Location: Beja Airport

Current Time: Aug 30, 2016 at 2:33:07 AM

Latest Report: Aug 30, 2016 at 2:00 AM


Visibility: 10 mi

Pressure: 30.09 "Hg

Humidity: 64%

Dew Point: 50 °F

Location of BejaLocation

Past Weather in Beja — Graph

°F

Beja Temperature Yesterday

Maximum temperature yesterday: 90 °F (at 4:00 PM)
Minimum temperature yesterday: 59 °F (at 7:00 AM)
Average temperature yesterday: 74 °F

High & Low Weather Summary for the Past Weeks

 TemperatureHumidityPressure
High100 °F (Aug 23, 6:00 PM)94% (Aug 16, 7:00 AM)30.18 "Hg (Aug 16, 7:00 AM)
Low55 °F (Aug 21, 6:00 AM)9% (Aug 21, 6:00 PM)29.86 "Hg (Aug 25, 5:00 PM)
Average77 °F51%30.03 "Hg
* Reported Aug 15 1:00 AM — Aug 30 1:00 AM, Beja, Weather by CustomWeather, © 2016

Note: Actual official high and low records may vary slightly from our data, if they occured in-between our weather recording intervals... More about our weather records

Advertising

Beja Weather History for the Previous 24 Hours

Scroll right to see more
 ConditionsComfort  
Time TempWeatherWind HumidityBarometerVisibility
1:00 AM
Tue, Aug 30
66 °FClear.12 mph56%30.09 "Hg10 mi
12:00 AM68 °FClear.8 mph53%30.09 "Hg10 mi
11:00 PM
Mon, Aug 29
72 °FClear.9 mph50%30.09 "Hg10 mi
10:00 PM90 °FClear.9 mph29%30.09 "Hg10 mi
9:00 PM79 °FSunny.10 mph39%30.07 "Hg10 mi
8:00 PM84 °FSunny.15 mph31%30.07 "Hg10 mi
7:00 PM88 °FSunny.15 mph27%30.07 "Hg10 mi
6:00 PM90 °FPassing clouds.10 mph26%30.07 "HgN/A
5:00 PM90 °FPassing clouds.13 mph18%30.07 "HgN/A
4:00 PM90 °FPassing clouds.12 mph17%30.09 "HgN/A
3:00 PM88 °FSunny.12 mph22%30.12 "Hg10 mi
2:00 PM84 °FSunny.10 mph27%30.12 "Hg10 mi
1:00 PM81 °FSunny.10 mph34%30.15 "Hg10 mi
12:00 PM77 °FPassing clouds.9 mph44%30.15 "HgN/A
11:00 AM73 °FPassing clouds.8 mph47%30.18 "HgN/A
10:00 AM70 °FPassing clouds.8 mph57%30.15 "HgN/A
9:00 AM63 °FSunny.8 mph73%30.15 "Hg10 mi
8:00 AM59 °FSunny.9 mph77%30.15 "Hg10 mi
7:00 AM59 °FClear.8 mph77%30.15 "Hg10 mi
6:00 AM61 °FClear.7 mph72%30.15 "Hg10 mi
5:00 AM63 °FClear.6 mph64%30.15 "Hg10 mi
4:00 AM64 °FClear.7 mph64%30.15 "Hg10 mi
3:00 AM64 °FClear.6 mph68%30.15 "Hg10 mi
2:00 AM66 °FClear.6 mph64%30.15 "Hg10 mi
Weather by CustomWeather, © 2016

See weather overviewHow to use our weather pages